Location: St. Louis
(38.6270°N, 90.1994°W)
Time: 10:42:35
(UTC-06:00)

A-11 Canister half - Pass Details

Date: 15 December 2021
Orbit: 1524 x 1684 km, 47.3° (Epoch: 25 January)

Event Time Altitude Azimuth Distance (km) Brightness Sun altitude
Rises 05:20:07 0° 300° (WNW) 4,934 - -21.0°
Reaches altitude 10° 05:23:24 10° 296° (WNW) 3,934 - -20.4°
Exits shadow 05:27:34 27° 284° (WNW) 2,780 9.7 -19.6°
Maximum altitude 05:33:00 51° 224° (SW) 1,986 9.4 -18.6°
Drops below altitude 10° 05:42:18 10° 152° (SSE) 3,816 11.7 -16.8°
Sets 05:45:27 0° 147° (SSE) 4,777 12.4 -16.3°
